DW2213 Weather Reports


Display with metric or nautical units.
time (UTC)temp
F
wind
direction
speed
MPH
gust
MPH
rain 1hr
in
rain 24hr
in
rain mn
in
humidity
%
barometer
mb
20211025232305 61 248 1.0 2.0 0.00 0.03 0.00 88 1020.4
20211025231802 61 248 1.0 3.0 0.00 0.03 0.00 88 1020.4
20211025230801 61 248 2.0 3.0 0.00 0.03 0.00 88 1020.4
20211025230301 61 248 1.0 3.0 0.00 0.03 0.00 88 1020.4
20211025225802 61 248 2.0 3.0 0.00 0.03 0.00 88 1020.3
20211025224802 61 248 1.0 2.0 0.00 0.03 0.00 87 1020.3
20211025224302 61 248 2.0 3.0 0.00 0.03 0.00 87 1020.3
20211025223802 61 248 1.0 3.0 0.00 0.03 0.00 87 1020.3
20211025222802 62 192 1.0 3.0 0.00 0.03 0.00 87 1020.3
20211025222305 62 192 2.0 3.0 0.00 0.03 0.00 87 1020.3
20211025221802 62 187 2.0 3.0 0.00 0.03 0.00 87 1020.3
20211025221302 62 187 1.0 3.0 0.00 0.03 0.00 87 1020.3
20211025220846 62 187 1.0 3.0 0.00 0.03 0.00 87 1020.3
20211025220302 62 187 0.0 3.0 0.00 0.03 0.00 87 1020.3
20211025215306 62 144 2.0 3.0 0.00 0.03 0.03 86 1020.3
20211025214803 63 137 1.0 3.0 0.00 0.03 0.03 86 1020.2
20211025214302 63 138 1.0 2.0 0.00 0.03 0.03 86 1020.2
20211025213802 63 137 0.0 3.0 0.00 0.03 0.03 86 1020.2
20211025213302 63 137 2.0 3.0 0.00 0.03 0.03 86 1020.2
20211025212802 63 137 1.0 3.0 0.00 0.03 0.03 85 1020.2
20211025212306 63 136 1.0 3.0 0.00 0.03 0.03 85 1020.2
20211025211801 63 136 2.0 3.0 0.00 0.03 0.03 85 1020.1
20211025210802 63 136 2.0 3.0 0.00 0.03 0.03 85 1020.0
20211025210302 64 136 0.0 2.0 0.00 0.03 0.03 85 1019.9
20211025205802 64 136 1.0 3.0 0.00 0.03 0.03 84 1019.9
20211025204302 64 136 1.0 2.0 0.00 0.03 0.03 84 1019.8
20211025203802 64 135 0.0 0.0 0.00 0.03 0.03 84 1019.7
20211025202802 64 135 0.0 0.0 0.00 0.03 0.03 83 1019.6
20211025200802 64 135 0.0 0.0 0.00 0.03 0.03 82 1019.5
20211025200302 65 135 0.0 0.0 0.00 0.03 0.03 82 1019.5
20211025195802 65 135 0.0 0.0 0.00 0.03 0.03 82 1019.4
20211025195305 65 135 0.0 0.0 0.00 0.03 0.03 82 1019.3
20211025194802 65 135 0.0 0.0 0.00 0.03 0.03 82 1019.3
20211025194302 65 135 0.0 0.0 0.00 0.03 0.03 82 1019.2
20211025193803 65 135 0.0 0.0 0.00 0.03 0.03 82 1019.2
20211025192305 65 135 0.0 0.0 0.00 0.03 0.03 82 1019.1
20211025191802 66 135 0.0 0.0 0.00 0.03 0.03 82 1019.1
20211025191303 66 135 0.0 0.0 0.00 0.03 0.03 82 1019.2
20211025190802 66 135 0.0 0.0 0.00 0.03 0.03 82 1019.2
20211025190302 66 135 0.0 0.0 0.00 0.03 0.03 82 1019.2
20211025185802 66 135 0.0 0.0 0.00 0.03 0.03 82 1019.1
20211025183802 66 135 0.0 0.0 0.00 0.03 0.03 82 1018.9
20211025183302 66 135 0.0 0.0 0.00 0.03 0.03 82 1018.9
20211025182305 67 135 0.0 0.0 0.00 0.03 0.03 81 1018.9
20211025181803 67 135 0.0 0.0 0.00 0.03 0.03 81 1018.8
20211025180802 67 135 1.0 3.0 0.00 0.03 0.03 81 1018.7
20211025175802 67 135 0.0 2.0 0.00 0.03 0.03 80 1018.6
20211025174303 67 134 2.0 5.0 0.00 0.03 0.03 80 1018.4
20211025173802 67 134 1.0 3.0 0.00 0.03 0.03 80 1018.3
20211025173302 67 135 2.0 5.0 0.00 0.04 0.03 79 1018.3
20211025171802 68 129 3.0 6.0 0.00 0.04 0.03 79 1018.1
20211025171301 68 128 5.0 8.0 0.00 0.04 0.03 79 1018.0
20211025170802 68 119 3.0 6.0 0.00 0.04 0.03 78 1018.0
20211025165802 68 137 4.0 7.0 0.01 0.04 0.03 78 1017.9
20211025164801 68 131 6.0 7.0 0.01 0.04 0.03 77 1017.8
20211025164301 68 121 6.0 9.0 0.01 0.04 0.03 77 1017.8
20211025163801 69 130 6.0 8.0 0.01 0.04 0.03 77 1017.8
20211025163301 69 128 6.0 10.0 0.01 0.04 0.03 77 1017.8
20211025162802 69 145 6.0 9.0 0.01 0.04 0.03 77 1017.7
20211025162301 69 135 5.0 10.0 0.01 0.04 0.03 77 1017.7
20211025161801 69 148 7.0 9.0 0.01 0.04 0.03 77 1017.7
20211025161302 69 144 5.0 12.0 0.01 0.04 0.03 77 1017.7
20211025160802 69 139 7.0 9.0 0.01 0.04 0.03 76 1017.7
20211025160301 69 149 6.0 9.0 0.01 0.04 0.03 76 1017.6
20211025155802 69 135 3.0 8.0 0.00 0.03 0.02 76 1017.7
20211025155301 69 127 6.0 9.0 0.00 0.03 0.02 76 1017.7
20211025153801 69 118 8.0 13.0 0.00 0.03 0.02 74 1017.8
20211025153301 70 138 7.0 12.0 0.00 0.03 0.02 75 1017.8
20211025151801 70 139 7.0 12.0 0.00 0.03 0.02 74 1017.8
20211025150801 70 136 6.0 12.0 0.00 0.03 0.02 74 1017.8
20211025150302 70 142 7.0 12.0 0.00 0.03 0.02 73 1017.8
20211025145306 70 150 7.0 12.0 0.00 0.03 0.02 73 1017.8
20211025144802 70 151 7.0 10.0 0.00 0.03 0.02 72 1017.8
20211025144301 70 145 7.0 12.0 0.00 0.03 0.02 71 1017.9
20211025143301 71 136 6.0 10.0 0.00 0.03 0.02 72 1018.0
20211025142802 71 120 5.0 9.0 0.00 0.03 0.02 71 1018.0
20211025142305 70 127 5.0 9.0 0.00 0.03 0.02 71 1018.0
20211025141801 71 141 6.0 12.0 0.00 0.03 0.02 72 1018.1
20211025141301 70 99 5.0 10.0 0.00 0.03 0.02 71 1018.1
20211025140802 70 144 6.0 9.0 0.00 0.03 0.02 72 1018.2
20211025140301 71 105 5.0 8.0 0.00 0.03 0.02 70 1018.3
20211025135801 71 139 3.0 8.0 0.00 0.03 0.02 71 1018.3
20211025135302 70 109 5.0 12.0 0.00 0.03 0.02 72 1018.4
20211025134802 71 117 6.0 9.0 0.00 0.03 0.02 71 1018.5
20211025134301 71 135 6.0 12.0 0.00 0.03 0.02 72 1018.5
20211025133802 70 133 5.0 9.0 0.00 0.03 0.02 72 1018.5
20211025133302 71 90 5.0 9.0 0.00 0.03 0.02 72 1018.5
20211025132801 71 91 5.0 10.0 0.00 0.03 0.02 72 1018.6
20211025131802 71 131 6.0 12.0 0.00 0.03 0.02 69 1018.7
20211025130801 71 144 5.0 9.0 0.00 0.03 0.02 68 1018.8
20211025130301 71 115 5.0 9.0 0.00 0.03 0.02 68 1018.9
20211025124802 71 121 5.0 12.0 0.00 0.03 0.02 72 1019.1
20211025124301 71 91 4.0 7.0 0.00 0.04 0.02 72 1019.1
20211025123301 71 84 2.0 7.0 0.00 0.04 0.02 71 1019.2
20211025122802 71 117 4.0 7.0 0.00 0.04 0.02 70 1019.2
20211025122305 71 96 3.0 5.0 0.00 0.04 0.02 70 1019.3
20211025121802 71 148 3.0 9.0 0.00 0.04 0.02 71 1019.3
20211025120802 70 141 3.0 8.0 0.00 0.04 0.02 72 1019.5
20211025115801 70 134 2.0 5.0 0.00 0.04 0.02 72 1019.7
20211025115301 69 134 1.0 5.0 0.00 0.04 0.02 72 1019.8
20211025114802 70 130 0.0 6.0 0.00 0.04 0.02 70 1019.9
20211025113801 69 190 1.0 3.0 0.00 0.04 0.02 71 1020.1
20211025113302 69 190 2.0 3.0 0.00 0.04 0.02 71 1020.2
20211025112801 69 190 1.0 2.0 0.00 0.04 0.02 72 1020.3
20211025111302 69 190 1.0 3.0 0.00 0.04 0.02 71 1020.5
20211025110802 68 190 1.0 3.0 0.00 0.04 0.02 72 1020.5
20211025110301 68 190 2.0 3.0 0.00 0.04 0.02 73 1020.6
20211025105802 68 190 1.0 3.0 0.00 0.04 0.02 73 1020.6
20211025105305 67 243 2.0 3.0 0.00 0.04 0.02 74 1020.6
20211025104802 67 261 1.0 2.0 0.01 0.04 0.02 74 1020.7
20211025104302 67 261 2.0 3.0 0.01 0.04 0.02 73 1020.7
20211025103301 66 261 1.0 3.0 0.01 0.04 0.02 73 1020.7
20211025102802 66 261 2.0 3.0 0.01 0.04 0.02 72 1020.8
20211025102305 66 282 2.0 3.0 0.01 0.04 0.02 73 1020.8
20211025101801 66 298 2.0 5.0 0.01 0.04 0.02 74 1020.7
20211025101302 65 300 3.0 5.0 0.01 0.04 0.02 74 1020.7
20211025100802 65 266 2.0 6.0 0.01 0.04 0.02 75 1020.7
20211025095301 64 244 2.0 7.0 0.01 0.04 0.02 77 1020.7
20211025094801 64 285 2.0 7.0 0.00 0.03 0.01 77 1020.7
20211025094302 64 271 4.0 10.0 0.00 0.03 0.01 78 1020.7
20211025093801 64 282 5.0 10.0 0.00 0.03 0.01 77 1020.7
20211025093301 63 250 3.0 8.0 0.00 0.03 0.01 78 1020.7
20211025092301 63 249 4.0 8.0 0.00 0.03 0.01 80 1020.7
20211025091302 63 283 4.0 8.0 0.00 0.03 0.01 81 1020.7
20211025085802 62 277 4.0 7.0 0.00 0.03 0.01 83 1020.8
20211025085301 61 286 3.0 5.0 0.00 0.04 0.01 84 1020.8
20211025084801 61 254 3.0 5.0 0.00 0.04 0.01 84 1020.8
20211025084301 61 284 3.0 6.0 0.00 0.04 0.01 84 1020.8
20211025083801 61 267 3.0 6.0 0.00 0.04 0.01 84 1020.8
20211025083301 60 268 3.0 6.0 0.00 0.04 0.01 85 1020.7
20211025081801 60 265 3.0 5.0 0.00 0.04 0.01 86 1020.6
20211025080801 59 262 3.0 5.0 0.00 0.04 0.01 87 1020.5
20211025075801 58 259 2.0 6.0 0.00 0.04 0.01 89 1020.5
20211025075301 58 304 3.0 6.0 0.00 0.04 0.01 90 1020.4
20211025073802 56 300 3.0 7.0 0.00 0.04 0.01 92 1020.3
20211025072801 56 279 2.0 7.0 0.00 0.04 0.01 91 1020.2
20211025072305 56 252 3.0 5.0 0.00 0.04 0.01 91 1020.2
20211025071802 56 277 2.0 6.0 0.00 0.04 0.01 91 1020.1
20211025071302 56 285 3.0 6.0 0.00 0.04 0.01 91 1020.0
20211025070801 56 275 3.0 6.0 0.00 0.04 0.01 91 1019.9
20211025065301 55 265 2.0 5.0 0.00 0.04 0.01 91 1019.9
20211025064302 55 260 2.0 5.0 0.00 0.04 0.01 91 1019.8
20211025063801 55 262 1.0 5.0 0.00 0.04 0.01 91 1019.8
20211025063301 55 255 2.0 3.0 0.00 0.04 0.01 91 1019.7
20211025062301 55 256 1.0 3.0 0.00 0.04 0.01 91 1019.6
20211025061801 55 271 2.0 5.0 0.00 0.04 0.01 91 1019.6
20211025055802 56 271 2.0 5.0 0.00 0.04 0.01 90 1019.6
20211025055301 56 268 2.0 3.0 0.00 0.04 0.01 91 1019.6
20211025054301 56 267 2.0 3.0 0.00 0.04 0.01 90 1019.5
20211025053801 56 267 2.0 5.0 0.00 0.04 0.01 90 1019.5
20211025053301 56 263 1.0 3.0 0.00 0.04 0.01 90 1019.5
20211025052305 56 273 1.0 3.0 0.00 0.04 0.01 90 1019.5
20211025051802 56 276 1.0 3.0 0.00 0.04 0.01 90 1019.5
20211025051302 56 276 2.0 3.0 0.00 0.04 0.01 90 1019.5
20211025050802 56 276 2.0 3.0 0.00 0.04 0.01 90 1019.5
20211025050302 56 277 0.0 3.0 0.00 0.04 0.01 90 1019.5
20211025045301 56 277 1.0 3.0 0.00 0.04 0.01 90 1019.5
20211025044801 56 277 1.0 2.0 0.00 0.04 0.01 90 1019.6
20211025044301 56 277 1.0 3.0 0.00 0.04 0.01 90 1019.5
20211025043803 56 277 1.0 3.0 0.00 0.04 0.01 90 1019.5
20211025043301 56 277 0.0 2.0 0.00 0.04 0.01 90 1019.6
20211025042801 56 277 1.0 3.0 0.00 0.04 0.01 90 1019.6
20211025042301 56 277 1.0 3.0 0.00 0.04 0.01 90 1019.6
20211025041802 56 277 1.0 3.0 0.00 0.04 0.01 90 1019.6
20211025041302 56 277 1.0 2.0 0.00 0.04 0.01 90 1019.7
20211025040301 56 277 1.0 3.0 0.00 0.04 0.01 90 1019.6
20211025035801 56 276 1.0 2.0 0.00 0.04 0.01 90 1019.6
20211025035301 56 276 1.0 3.0 0.00 0.04 0.01 89 1019.5
20211025033801 56 276 2.0 3.0 0.00 0.04 0.01 89 1019.5
20211025032801 56 276 1.0 2.0 0.00 0.04 0.01 89 1019.5
20211025032301 56 276 0.0 1.0 0.00 0.04 0.01 89 1019.5
20211025031301 56 276 0.0 2.0 0.00 0.04 0.01 89 1019.7
20211025030801 57 276 0.0 2.0 0.00 0.04 0.01 89 1019.7
20211025025802 57 276 0.0 2.0 0.01 0.04 0.01 89 1019.7
20211025024801 57 276 1.0 2.0 0.01 0.04 0.01 89 1019.8
20211025024301 57 276 0.0 2.0 0.01 0.04 0.01 89 1019.8
20211025022801 57 276 1.0 3.0 0.01 0.04 0.01 89 1019.9
20211025021301 57 277 2.0 3.0 0.01 0.05 0.01 89 1020.0
20211025020801 57 279 2.0 3.0 0.01 0.05 0.01 89 1020.0
20211025020301 57 279 1.0 3.0 0.01 0.05 0.01 89 1020.1
20211025015801 57 284 2.0 3.0 0.00 0.04 0.00 89 1020.1
20211025015301 57 286 2.0 5.0 0.00 0.04 0.00 89 1020.2
20211025014801 58 256 2.0 6.0 0.00 0.04 0.00 89 1020.3
20211025014301 58 297 2.0 6.0 0.00 0.04 0.00 89 1020.4
20211025013801 58 266 2.0 6.0 0.00 0.04 0.00 89 1020.4
20211025013301 58 269 2.0 5.0 0.00 0.04 0.00 89 1020.4
20211025012801 58 267 2.0 5.0 0.00 0.04 0.00 89 1020.4
20211025012301 58 267 2.0 7.0 0.00 0.04 0.00 89 1020.5
20211025011801 58 245 2.0 5.0 0.00 0.04 0.00 89 1020.5
20211025011302 58 277 2.0 5.0 0.00 0.04 0.00 89 1020.5
20211025010801 58 273 3.0 6.0 0.00 0.04 0.00 89 1020.5
20211025010301 58 256 3.0 6.0 0.00 0.04 0.00 89 1020.5
20211025004801 58 255 2.0 5.0 0.00 0.04 0.00 89 1020.5
20211025004301 58 254 2.0 3.0 0.00 0.04 0.00 90 1020.4
20211025003801 58 254 1.0 3.0 0.00 0.04 0.00 90 1020.4
20211025002801 58 271 2.0 5.0 0.00 0.04 0.00 90 1020.5
20211025002305 58 279 4.0 7.0 0.00 0.04 0.00 90 1020.6
20211025001801 58 270 3.0 7.0 0.00 0.04 0.00 89 1020.6
20211025001301 58 276 3.0 6.0 0.00 0.04 0.00 89 1020.6
20211025000801 59 270 3.0 5.0 0.00 0.04 0.00 89 1020.7
20211025000302 59 267 3.0 5.0 0.00 0.04 0.00 89 1020.7
20211024235800 59 256 3.0 5.0 0.00 0.04 0.00 89 1020.7
20211024235301 59 274 2.0 3.0 0.00 0.04 0.00 89 1020.7
20211024233801 59 279 2.0 5.0 0.00 0.04 0.00 89 1020.8
20211024233301 59 278 2.0 6.0 0.00 0.04 0.00 89 1020.9